Presure
163 170 191 169 204 206 165 174 155 155 173 186 191 208 219 215 213 213 200 193 207 200 206 206 202 192 188 186 197 200 206 208 201 208 204 197 176 157 157 170 217 160 161 167 173 185 210
173 165 174 168 160 167 159 177 191 181 162 185 170 201 184 166 166 171 173 172 177 180 172 176 173 166 165 163 162 191 164 174 156 155 191 193 189 199 205 190 170 152 192 190 248 209 156
172 166 170 171 188 164 174 157 175 191 186 161 179 180 190 193 162 158 156 192 200 159 163 148 155 176 204 206 194 165 156 156 192 185 191 193 188 197 173 197 167 196 217 232 201 252 168
161 181 170 164 173 175 173 181 143 168 162 162 164 180 170 184 183 163 146 183 181 191 187 189 185 186 186 194 192 172 177 162 182 177 174 171 170 174 153 196 194 192 202 208 221 238 149
159 167 178 174 165 161 155 143 180 173 167 165 154 177 154 174 171 147 175 144 162 181 178 163 169 175 150 173 171 171 154 167 166 167 173 168 170 178 175 178 178 179 171 179 187 227 191
164 190 172 178 164 171 165 154 144 171 168 172 159 154 151 177 161 163 176 144 166 157 159 147 171 161 161 165 166 144 146 169 161 165 168 177 175 171 163 147 183 200 201 183 187 191 201
159 147 177 161 170 163 173 166 166 167 161 153 154 169 177 136 171 179 160 176 159 169 125 137 146 156 157 153 168 168 176 160 153 166 173 151 151 177 191 180 172 192 158 170 168 173 186
191 182 196 194 165 176 184 173 177 169 162 155 152 159 154 173 170 173 159 156 165 158 157 160 175 160 134 161 164 157 152 151 157 164 155 155 169 173 180 179 196 184 199 189 195 188 193
170 179 183 202 207 202 156 189 181 171 170 158 152 161 154 155 171 162 160 151 148 163 168 143 146 148 161 162 151 150 177 174 175 160 149 155 172 169 173 181 171 162 169 181 185 184 212
190 180 170 158 243 242 187 161 170 183 175 163 174 161 174 189 162 157 160 181 160 171 145 135 158 165 166 161 157 156 165 173 172 155 160 169 153 172 169 169 183 181 189 174 176 197 188
186 139 192 144 152 144 204 169 183 200 180 181 174 156 177 178 165 144 152 160 178 156 159 146 160 158 152 150 156 156 162 155 150 164 150 158 164 165 161 164 171 173 187 172 194 183 193
185 158 165 165 165 168 218 188 195 207 197 162 171 169 172 148 162 158 159 157 162 154 163 159 168 149 159 153 153 154 155 164 164 169 164 153 169 164 169 168 170 170 184 187 172 189 192
177 168 149 162 201 170 179 185 178 191 214 169 149 149 157 152 161 163 156 144 158 152 149 156 163 164 164 157 158 166 167 171 168 163 163 152 165 180 179 178 177 179 180 186 195 189 194
183 170 179 166 143 160 164 186 173 166 152 145 145 144 159 143 164 154 162 159 157 150 159 159 157 152 154 153 158 161 176 165 168 161 164 170 165 175 180 179 187 195 196 183 184 199 206
161 201 201 178 175 191 159 142 169 165 158 159 161 159 157 157 139 158 160 168 155 162 165 154 164 155 161 174 174 165 165 166 172 171 176 178 180 180 181 186 188 188 194 208 203 207 216
176 204 177 152 193 170 167 181 161 165 155 148 151 170 159 164 168 159 157 149 159 153 152 177 149 172 168 163 182 172 162 193 160 158 175 188 205 210 193 182 183 186 196 221 232 216 225
195 156 187 170 171 175 147 156 149 165 159 149 161 145 153 164 168 167 161 148 161 183 152 161 166 193 203 198 178 197 167 186 170 187 188 191 163 188 216 224 221 215 243 240 210 247 249
199 163 166 178 181 162 161 171 177 162 153 169 148 165 150 164 167 163 171 166 167 175 183 186 159 160 196 190 158 189 196 196 179 215 162 211 204 195 195 200 209 210 208 210 207 210 211
156 140 167 166 178 172 172 159 165 163 164 157 145 160 169 172 180 194 154 192 163 154 187 201 190 202 204 203 201 177 176 200 212 213 219 218 225 223 219 217 234 200 218 261 254 258 248
165 179 166 170 172 179 164 183 166 172 186 177 187 175 187 187 169 186 188 184 177 187 175 195 200 186 210 214 199 196 178 229 233 227 227 237 276 225 232 270 271 269 268 270 263 259 257
187 171 172 184 180 167 183 189 178 177 185 193 177 191 178 192 183 174 194 187 184 192 200 215 218 223 232 239 224 229 227 225 231 272 273 274 279 280 277 276 279 283 282 276 274 270 280
171 185 183 172 176 192 180 175 193 184 181 179 174 177 188 189 186 204 202 230 228 215 223 230 224 231 229 243 225 226 237 284 287 281 283 286 288 285 285 282 285 287 280 280 278 272 297
186 184 190 186 184 176 196 189 176 172 159 196 203 176 210 200 178 204 204 218 228 228 252 288 277 282 283 278 282 285 297 297 298 296 294 294 294 295 301 291 299 307 314 323 325 323 317
190 187 186 185 197 206 190 196 197 196 202 202 224 215 181 230 220 218 266 288 281 298 300 303 294 293 288 291 296 308 312 312 312 320 322 321 318 324 323 320 317 308 304 294 291 292 290
191 194 180 201 195 203 188 208 196 208 202 203 206 238 232 310 320 325 325 310 317 332 324 325 320 310 316 332 344 334 329 338 325 319 312 306 303 293 286 283 284 280 273 267 269 266 274
180 204 200 193 196 208 197 194 208 196 226 237 250 324 340 371 366 368 361 347 342 339 338 335 333 326 314 310 299 294 293 289 289 285 280 276 279 274 281 280 286 275 319 317 312 309 300
191 201 211 203 160 197 204 224 202 236 247 393 414 433 445 445 439 408 462 408 415 431 437 411 389 384 364 362 383 350 358 346 338 335 325 316 312 313 313 307 311 315 313 314 335 368 352
189 193 187 206 218 199 236 227 249 471 516 496 460 437 435 417 448 419 420 409 395 387 390 392 409 411 376 370 361 353 383 366 377 360 353 354 364 348 341 323 331 349 357 346 351 356 354
195 190 226 212 227 235 255 291 492 506 475 451 422 413 409 411 428 404 388 393 399 391 402 393 374 363 371 363 366 371 365 363 358 354 363 358 352 334 342 345 344 336 335 336 333 343 349
Wind_Speed
13 19 21 11 20 12 20 15 25 25 20 16 18 18 17 20 24 26 33 37 34 38 38 40 42 48 50 51 49 49 46 44 47 46 47 52 59 63 63 58 46 56 59 57 56 48 46
26 22 23 17 19 17 20 16 14 17 25 18 24 14 22 30 31 29 31 33 32 34 37 38 41 45 49 51 52 40 53 49 58 59 47 47 51 50 49 53 59 61 50 48 43 46 51
29 31 28 24 20 18 20 25 19 18 17 26 22 21 16 15 34 38 39 26 23 43 44 50 47 45 25 26 30 49 57 55 38 42 40 38 46 43 58 45 56 48 44 42 42 39 48
30 26 31 31 27 25 27 20 29 24 23 23 23 22 29 27 28 38 44 28 30 23 27 27 32 32 32 27 25 43 33 51 33 41 46 48 50 54 64 43 47 52 48 47 46 40 52
34 38 29 30 35 32 26 28 28 28 27 32 34 28 28 26 27 41 28 43 30 23 29 37 38 32 49 36 36 37 51 46 49 50 48 52 52 52 60 50 54 54 55 53 53 45 44
38 36 37 39 38 38 38 35 28 31 28 33 35 34 29 28 39 38 31 38 40 45 41 41 31 45 47 42 43 49 51 43 50 53 52 48 50 56 62 56 44 41 41 52 56 46 38
39 34 45 43 48 34 40 46 40 40 36 36 36 33 32 31 38 28 40 33 46 37 56 46 47 49 51 53 47 52 48 52 56 55 53 57 59 58 60 54 58 46 57 55 53 49 41
45 53 51 46 42 49 41 45 44 42 42 42 41 40 41 38 41 38 40 44 44 46 51 46 40 49 59 51 53 59 61 61 64 65 64 63 59 63 62 61 58 53 46 48 45 55 45
47 52 55 48 46 46 37 46 45 45 45 44 44 44 45 36 43 46 44 48 50 44 31 65 57 58 54 53 60 67 60 59 59 61 65 71 64 66 67 66 65 63 59 56 52 55 45
55 51 42 35 46 38 40 41 41 47 49 48 46 47 45 48 46 45 47 47 53 48 54 61 57 57 58 62 65 67 64 61 61 73 76 66 68 68 70 73 71 68 65 62 57 53 49
61 34 45 33 40 38 41 41 51 48 47 47 47 45 48 47 47 50 47 47 55 54 49 64 58 61 69 72 70 72 68 73 75 74 73 78 77 75 79 77 75 73 70 72 64 60 54
60 41 42 42 44 44 40 44 44 47 48 43 42 46 50 48 52 53 53 53 53 59 59 60 61 72 70 75 77 79 80 76 78 76 77 81 79 81 81 82 80 78 75 72 73 66 59
57 45 41 43 40 43 36 32 35 37 45 43 47 51 49 54 52 54 57 65 60 66 68 65 67 69 70 77 79 80 81 82 83 84 85 81 84 88 87 87 86 84 82 80 77 71 68
58 48 48 42 44 36 36 38 37 38 48 55 54 58 52 64 55 64 60 64 68 75 72 72 76 80 81 86 84 85 86 87 88 90 89 89 90 91 91 91 91 91 92 87 82 79 77
48 59 50 46 43 41 45 47 38 40 45 51 52 53 58 63 68 67 69 71 76 77 79 82 84 87 88 89 92 92 93 93 93 95 96 95 93 95 94 94 93 93 96 97 95 88 85
60 66 49 54 49 44 44 45 47 48 52 62 66 64 64 68 71 76 77 81 84 85 87 87 88 91 94 96 95 98 90 93 96 92 101 99 95 93 99 97 97 96 96 102 103 97 95
64 56 49 48 51 53 62 57 64 56 59 65 63 75 74 76 78 82 83 87 90 94 94 98 97 98 100 97 99 103 101 98 90 101 101 100 81 89 100 104 103 103 104 102 99 100 99
65 52 52 60 58 57 58 61 64 65 71 66 75 80 84 82 84 90 88 92 94 98 102 104 99 101 105 101 92 102 99 102 109 116 75 110 103 97 97 98 99 99 101 105 103 101 97
60 61 60 59 66 63 65 72 72 74 75 81 77 81 88 93 98 101 94 105 102 98 109 117 107 118 116 112 110 108 108 108 118 117 114 110 109 105 101 102 105 103 105 103 106 105 104
63 68 68 68 70 76 72 84 79 84 96 90 96 89 99 101 99 104 106 104 105 110 110 119 119 110 126 123 115 115 110 124 124 118 116 117 118 106 104 107 107 103 102 103 105 106 106
77 69 71 81 79 75 93 97 86 93 101 104 96 109 97 115 106 104 120 112 113 122 127 131 130 134 133 128 127 127 124 120 122 122 119 118 112 108 103 103 104 99 94 97 101 103 104
73 84 82 76 81 104 93 95 109 103 103 100 100 106 118 115 115 128 121 132 129 124 128 132 125 132 129 131 123 121 125 123 116 113 113 111 106 105 99 101 101 97 91 95 97 99 98
89 87 98 93 94 91 113 108 96 101 97 124 131 110 129 111 104 117 119 132 138 140 137 131 130 131 128 126 126 124 120 115 111 107 106 105 104 103 97 98 98 92 89 86 85 86 86
98 98 96 98 113 116 110 118 122 126 133 129 148 135 99 130 123 124 128 137 135 128 125 126 126 124 121 121 121 118 114 110 108 102 99 96 94 91 86 82 82 79 79 81 83 83 85
108 108 93 119 114 122 109 131 128 136 128 126 127 149 149 151 138 129 128 127 125 125 122 121 121 120 120 113 101 100 100 93 91 91 91 92 90 91 88 85 83 81 82 85 86 88 85
92 121 122 113 116 125 122 123 136 127 147 151 157 144 139 129 125 119 117 117 115 112 108 106 105 105 106 105 103 100 96 94 92 91 92 93 91 90 88 87 86 82 74 76 80 79 82
106 119 123 118 93 127 132 142 122 146 149 121 98 79 61 62 54 81 36 60 53 48 48 55 61 62 75 74 61 76 69 74 75 72 74 77 78 76 75 77 74 70 71 71 67 57 63
107 112 115 132 141 123 147 140 154 64 28 29 37 42 42 53 38 49 44 42 48 51 47 40 30 25 46 54 63 66 51 56 50 56 57 56 52 56 56 65 61 52 49 57 55 52 51
114 110 143 131 141 144 164 156 41 28 19 20 23 32 37 44 37 31 38 34 33 26 21 22 37 36 31 34 42 38 39 39 40 43 37 41 44 52 46 44 43 47 51 52 53 50 46
Wind_Direction
327 344 0 312 349 344 296 292 282 281 280 276 271 272 272 272 270 271 268 269 270 270 273 273 274 275 275 277 278 282 287 294 293 299 301 296 286 282 283 288 296 285 285 286 286 291 279
343 334 346 334 313 299 289 332 321 297 283 283 276 276 269 267 268 268 270 270 270 269 270 271 271 274 275 276 279 291 278 286 280 282 306 309 302 308 309 296 281 285 293 291 293 285 286
336 334 332 324 322 317 320 278 319 300 298 284 285 281 279 274 270 272 276 280 287 268 275 279 278 275 308 308 304 279 279 284 316 309 313 311 307 315 289 310 293 305 313 304 294 299 285
334 325 323 321 316 314 313 307 282 303 292 298 297 281 288 286 282 277 279 284 285 305 295 296 290 296 296 314 316 282 296 283 304 300 299 299 298 299 285 313 307 305 313 312 305 302 283
322 325 315 308 310 308 302 296 297 300 297 303 287 297 300 291 274 282 288 269 285 295 293 289 295 296 287 298 295 293 284 292 294 294 296 295 295 300 296 302 302 301 300 300 300 307 291
326 310 311 305 318 297 300 302 287 295 297 287 300 302 293 277 303 298 281 282 294 296 288 277 300 296 296 294 291 276 284 292 291 290 292 300 296 294 293 290 305 309 301 298 299 303 304
327 318 311 317 314 304 287 295 294 294 298 306 304 284 280 289 288 282 295 279 301 287 278 275 286 293 294 294 295 294 298 291 289 290 295 293 294 300 310 295 295 303 296 295 290 295 299
321 313 310 300 304 296 287 286 280 286 292 303 305 298 302 284 286 285 294 300 293 296 296 286 287 284 285 293 291 293 292 294 295 292 293 294 296 298 305 302 306 294 302 289 294 289 293
317 317 314 311 307 289 302 280 279 285 281 296 303 294 301 286 284 288 291 298 301 286 284 292 291 291 290 281 288 290 301 296 294 293 292 294 299 298 299 303 294 291 290 290 288 290 300
307 315 313 319 313 285 281 298 290 277 277 288 284 293 286 284 291 295 290 285 285 287 285 285 289 289 289 288 287 289 293 295 292 289 289 296 292 296 294 294 297 295 293 288 287 290 278
313 306 320 313 312 311 276 296 289 273 278 283 283 296 283 285 289 287 282 285 296 283 275 278 280 278 282 285 288 285 289 287 288 286 288 288 289 290 290 290 290 290 293 287 293 283 285
313 307 314 307 306 305 292 296 287 277 275 291 291 293 289 289 295 290 285 283 284 276 283 280 287 283 276 278 280 281 282 285 284 287 285 287 290 288 286 287 287 287 287 285 283 285 286
314 311 306 308 303 303 302 299 292 291 282 290 288 287 285 283 285 285 281 282 280 280 279 279 284 283 283 279 281 285 285 288 285 284 285 288 288 290 288 286 285 285 284 284 286 282 284
303 311 312 306 299 301 298 300 293 289 286 289 287 285 283 290 282 276 282 276 277 276 277 279 279 279 279 280 280 281 287 283 282 284 284 284 285 285 285 284 287 289 287 283 282 285 284
304 313 313 303 300 306 292 300 293 286 281 283 285 280 280 277 289 278 277 287 275 281 285 277 283 279 279 282 280 279 280 280 283 281 282 282 281 281 281 283 284 285 286 288 286 285 284
302 316 308 296 305 294 293 299 291 292 284 281 285 294 282 286 287 282 277 278 283 281 280 288 281 283 279 280 282 279 288 283 284 288 281 284 289 289 282 283 284 283 284 288 285 283 282
308 306 306 302 302 302 290 281 286 288 281 281 285 287 283 291 290 286 286 283 281 293 281 278 278 291 295 288 280 291 282 286 291 280 280 282 292 290 292 291 289 288 287 284 280 280 278
308 297 298 307 308 289 289 297 301 281 279 288 282 295 282 284 287 287 286 281 281 289 291 291 283 284 294 290 292 294 288 287 281 294 298 291 284 280 280 280 281 280 280 280 282 282 283
291 302 296 291 308 301 297 289 288 284 282 287 290 283 291 290 294 299 289 297 282 288 292 297 289 295 293 292 290 284 287 288 291 290 290 288 288 286 284 282 282 283 280 278 277 275 274
293 304 305 301 303 306 293 308 292 298 305 299 301 292 298 296 283 294 294 290 285 288 282 291 293 284 294 293 291 287 283 291 292 291 289 286 286 282 286 283 281 280 279 277 274 273 271
311 302 303 310 308 296 310 310 302 298 301 304 292 304 288 300 290 286 295 289 287 291 291 291 291 291 291 291 290 291 290 291 290 286 284 284 284 283 281 280 280 278 278 277 276 274 274
300 308 310 303 306 311 308 304 308 303 297 292 286 287 292 292 289 293 291 296 293 293 293 293 292 292 292 290 288 289 289 286 285 283 283 282 282 280 279 279 279 278 278 276 275 274 278
310 310 311 310 308 304 311 308 293 288 300 298 299 289 293 290 299 293 291 296 295 293 292 289 287 287 286 285 285 285 285 284 284 284 283 283 282 281 281 280 281 282 282 280 278 278 278
311 310 311 309 310 311 307 307 305 301 301 298 305 299 297 296 293 294 293 293 290 288 287 285 285 284 284 284 284 284 284 284 285 286 285 285 284 283 284 282 281 281 279 278 278 277 277
312 310 307 312 309 310 301 307 303 307 300 298 296 300 298 298 294 291 284 286 284 282 282 283 282 282 283 284 283 283 283 283 283 284 283 282 281 281 281 280 280 279 276 275 275 274 275
308 311 310 308 308 310 305 303 304 301 301 302 301 298 289 283 285 284 283 283 283 283 283 283 282 282 280 280 281 282 281 280 280 280 280 280 280 280 281 279 278 276 275 273 272 273 274
308 310 310 309 304 305 302 303 298 304 302 287 285 285 280 282 278 287 269 279 274 278 273 268 272 268 275 274 274 278 274 276 277 274 274 276 276 277 276 276 275 274 273 273 273 275 272
307 308 308 307 307 303 308 304 308 305 283 267 273 272 271 279 269 275 278 271 275 282 282 273 269 256 267 271 273 274 279 275 275 273 272 272 271 272 272 272 272 273 273 273 274 275 277
307 304 309 308 310 309 311 310 307 305 292 275 278 277 261 270 289 264 283 285 281 273 280 249 268 265 273 275 281 279 278 276 276 275 269 271 270 270 270 271 271 272 272 274 276 278 279